Preview of NWS' New Version of Forecast
This preview is not operational and should not be used for support decisions.

Regional Weather Roundup (RWR)

Issued by National Weather Service (NWS)

                            
000
ASUS42 KTBW 190717
RWRFL 
FLORIDA REGIONAL WEATHER ROUNDUP
NATIONAL WEATHER SERVICE TAMPA BAY RUSKIN FL
300 AM EDT MON AUG 19 2019

NOTE: "FAIR" INDICATES FEW OR NO CLOUDS BELOW 12,000 FEET WITH NO
SIGNIFICANT WEATHER AND/OR OBSTRUCTIONS TO VISIBILITY.

FLZ001>010-012>015-112-114-115-190800-
PANHANDLE FLORIDA
  
CITY           SKY/WX    TMP DP  RH WIND       PRES   REMARKS
PENSACOLA      FAIR      81  80  97 NW6       29.99F                  
PENSACOLA NAS  FAIR      82  77  84 VRB3      29.98F                  
MILTON NAS     FAIR      77  76  96 CALM      30.00F                  
CRESTVIEW      MOCLDY    76  74  93 CALM      30.01F                  
DUKE FIELD     FAIR      77  76  97 W3        29.99                   
VALPARAISO     MOCLDY    79  75  86 CALM      29.99S                  
MARY ESTHER    MOCLDY    81  76  82 CALM      29.98S                  
TRI COUNTY     FAIR      76  73  91 VRB3      29.99F                  
PANAMA CITY    FAIR      75  72  90 CALM      29.99R                  
TYNDALL AFB    HVY RAIN  79  77  94 SW14G26   29.99F FOG              
APALACHICOLA   FAIR      80  75  84 SW9       30.01S                  

STATION/POSITION SKY/WX   TEMP    WIND        PRES    WAVE   SWELL
                          AIR SEA DIR/SP/G            HT/PER HT/PER
                          (F)     (DEG/KT/KT) (MB)    (FT/S) (FT/S)
30.1N   87.6W              84 87  220/ 14/ 16 1015.8S   3/ 6   2/ 6
29.2N   88.2W              81 85  190/ 17/ 21 1016.2F   4/ 7   3/ 7
28.8N   86.0W                 85  230/ 17/ 21 1016.9F   4/ 7   2/ 7
PANAMA CITY BEAC           84 86  250/ 13/ 16 1016.0S
TOWER C                    81     230/ 19/ 21 1017.0F
28.5N   84.5W              83     220/ 10/ 12 1018.5F   3/ 6   3/ 6

$$
FLZ011-016>038-118-127-128-134-139-239-190800-
NORTH FLORIDA
  
CITY           SKY/WX    TMP DP  RH WIND       PRES   REMARKS
MARIANNA       FAIR      76  74  93 SW6       29.98S                  
TALLAHASSEE    FAIR      76  76 100 CALM      30.01S                  
PERRY          DRIZZLE   77  76  97 SE5       30.04S                  
LIVE OAK       CLOUDY    75  75 100 CALM      30.04F                  
CROSS CITY     FAIR      75  74  98 S5        30.06S                  
LAKE CITY      FAIR      73  72  94 S3        30.05F                  
GAINESVILLE    FAIR      74  72  93 E3        30.09F                  
WILLISTON      FAIR      73  73  99 S5        30.07F                  
MAYPORT NAS    FAIR      75  72  90 S7        30.06F                  
JACKSONVILLE   MOCLDY    75  72  90 S6        30.05F                  
JAX NAS        MOCLDY    77  71  82 S9        30.07F                  
JAX CECIL      FAIR      73  72  94 CALM      30.06F                  
FERNANDINA BEA FAIR      76  73  90 S8        30.06F                  
ST AUGUSTINE   FAIR      75  71  87 SW6       30.09S                  
PALM COAST     FAIR      73  70  92 SW3       30.08F                  

STATION/POSITION SKY/WX   TEMP    WIND        PRES    WAVE   SWELL
                          AIR SEA DIR/SP/G            HT/PER HT/PER
                          (F)     (DEG/KT/KT) (MB)    (FT/S) (FT/S)
SHELL POINT      NOT AVBL
KEATON BEACH               81     230/ 14/ 16 1017.2F
CEDAR KEY                  80     230/  2/  3 1018.5R
FERNANDINA                 80 81              1018.7F
30.7N   81.3W                 81                N/A     1/ 9
MAYPORT                    75 82  180/  5/  6 1018.6F
31.4N   80.9W              79 82  210/ 12/ 14 1017.5F   2/ 4   2/ 9
ST AUGUSTINE               75 80  240/  6/  7 1018.7F

$$
FLZ040-043>046-052-053-057-058-063-144-190800-
INTERIOR CENTRAL FLORIDA
  
CITY           SKY/WX    TMP DP  RH WIND       PRES   REMARKS
OCALA          FAIR      74  73  97 S5        30.10F                  
LEESBURG       FAIR      74  72  93 CALM      30.10F                  
SANFORD        FAIR      77  73  87 CALM      30.08F                  
ORLANDO EXEC   FAIR      78  72  81 CALM      30.08F                  
ORLANDO INTL   CLOUDY    77  72  84 CALM      30.08F                  
KISSIMMEE      FAIR      77  74  90 CALM      30.09F                  
WINTER HAVEN   FAIR      80  74  81 N3        30.09F                  
LAKELAND       FAIR      77  73  88 CALM      30.08F                  
BARTOW           N/A     79  73  83 CALM      30.07F                  
SEBRING        FAIR      76  73  90 CALM      30.08F                  
OKEECHOBEE     FAIR      73  72  94 N7        30.07F                  

$$
FLZ041-047-054-059-064-141-147-190800-
EAST CENTRAL FLORIDA
  
CITY           SKY/WX    TMP DP  RH WIND       PRES   REMARKS
DAYTONA BEACH  CLOUDY    75  74  96 W6        30.08F                  
DELAND         FAIR      75  72  88 CALM      30.08F                  
JFK SPACE CTR  FAIR     N/A N/A N/A NW3         N/A                   
CAPE CANAVERAL FAIR      78  76  96 MISG      30.06F                  
PATRICK AFB    FAIR      80  79  96 W3        30.07F                  
MELBOURNE      FAIR      79  74  84 CALM      30.07F                  
VERO BEACH     CLOUDY    79  77  94 NW7       30.07F                  
FT PIERCE      MOCLDY    78  75  90 W3        30.07S                  
STUART         FAIR      81  75  83 CALM      30.07F                  

STATION/POSITION SKY/WX   TEMP    WIND        PRES    WAVE   SWELL
                          AIR SEA DIR/SP/G            HT/PER HT/PER
                          (F)     (DEG/KT/KT) (MB)    (FT/S) (FT/S)
28.5N   80.2W              81 85  310/  4/  6 1018.3F   1/ 8   2/ 8
28.9N   78.5W              84 86  130/ 10/ 12 1018.9F   2/ 8   2/ 8
TRIDENT PIER               79 81  270/  3/  6 1020.1F
28.4N   80.5W                 78                N/A     1/ 9
27.5N   80.2W                 84                N/A     1/ 8

$$
FLZ050-056-061-142-242-148-248-149-249-151-251-155-255-
160-260-190800-
WEST CENTRAL FLORIDA
  
CITY           SKY/WX    TMP DP  RH WIND       PRES   REMARKS
CRYSTAL RIVER  FAIR      72  72 100 CALM      30.09F                  
INVERNESS      FAIR      72  72 100 S3        30.10F                  
BROOKSVILLE    FAIR      73  72  96 N3        30.10F                  
CLEARWATER AIR FAIR      75  73  94 CALM      30.07F                  
ST PETE CLEARW FAIR      79  74  84 NE5       30.08F                  
TAMPA INTL     FAIR      77  73  87 N5        30.09F                  
PLANT CITY     FAIR      77  77 100 CALM      30.10F                  
MACDILL AFB    FAIR      77  73  90 N5        30.08F                  
PETER O KNIGHT FAIR     N/A N/A N/A CALM      30.09S                  
ST PETERSBURG  FAIR      80  75  84 N7        30.06F                  
SARASOTA       FAIR      77  73  87 NE5       30.04F                  
VENICE         FAIR      79  73  83 NE6       30.07F                  

STATION/POSITION SKY/WX   TEMP    WIND        PRES    WAVE   SWELL
                          AIR SEA DIR/SP/G            HT/PER HT/PER
                          (F)     (DEG/KT/KT) (MB)    (FT/S) (FT/S)
27.3N   84.2W                 85                N/A     2/ 6
CLEARWATER BEACH           78 85   40/  4/  5 1018.9F
MIDDLE TAMPA BAY           80      70/  6/  7 1018.7F
VENICE                     78 85   50/  5/  7 1017.8F

$$
FLZ066-069-070-075>078-162-262-165-265-190800-
SOUTHWEST FLORIDA AND KEYS
  
CITY           SKY/WX    TMP DP  RH WIND       PRES   REMARKS
PUNTA GORDA    FAIR      75  74  96 E3        30.08F                  
FT MYERS       FAIR      77  72  84 NE6       30.05F                  
SOUTHWEST INTL FAIR      78  73  84 NE6       30.06F                  
IMMOKALEE      FAIR      75  73  94 CALM      30.04F                  
MARATHON       FAIR      86  73  65 E9        30.03S                  
KEY WEST NAS   FAIR      87  75  67 E10       30.03F HX  96           
KEY WEST INTL  FAIR      85  76  74 E7        30.03F                  

STATION/POSITION SKY/WX   TEMP    WIND        PRES    WAVE   SWELL
                          AIR SEA DIR/SP/G            HT/PER HT/PER
                          (F)     (DEG/KT/KT) (MB)    (FT/S) (FT/S)
NAPLES                     79 87              1017.9F
26.0N   85.6W              85 85  100/ 10/ 12 1017.2F   3/ 6   2/ 6
DRY TORTUGAS               87     110/ 13/ 14 1017.0F
SAND KEY                   85     100/ 14/ 16 1015.5F
SOMBRERO KEY               86      80/ 14/ 17 1017.0F
LONG KEY                   87                 1015.9

$$
FLZ067-068-071>074-168-172>174-190800-
SOUTHEAST FLORIDA 
  
CITY           SKY/WX    TMP DP  RH WIND       PRES   REMARKS
W PALM BEACH   FAIR      84  75  74 E6        30.05F                  
FT LAUDER-EXEC MOCLDY    83  75  77 E6        30.04F                  
FT LAUDERDALE  FAIR      83  75  77 E6        30.04F                  
POMPANO BEACH  MOCLDY    85  75  72 E7        30.04F                  
PEMBROKE PINES FAIR      82  74  76 CALM      30.06F                  
OPA LOCKA      FAIR      83  75  77 CALM      30.05F                  
MIAMI          FAIR      84  74  71 E8        30.05S                  
WEST KENDALL   FAIR      79  75  87 CALM      30.05S                  
HOMESTEAD      FAIR      84  75  74 E8        30.03F                  

STATION/POSITION SKY/WX   TEMP    WIND        PRES    WAVE   SWELL
                          AIR SEA DIR/SP/G            HT/PER HT/PER
                          (F)     (DEG/KT/KT) (MB)    (FT/S) (FT/S)
VIRGINIA KEY               86 90   60/  9/ 12 1017.0F
LAKE WORTH                        110/  6/  8   N/A
FOWEY ROCKS                84 86  120/ 13/ 14 1017.5F
SETTLEMENT POINT           85     110/ 12/ 14 1017.9F

$$